owner,sensor,date,latitude,longitude,vertical_datum,wind_speed,wind_to_direction,wind_speed_of_gust,qcFlag 
COMPS,ioos:station:USF.COMPS:EGK:1,2013-09-03T20:54:00Z,27.6010,-82.7510,10.0,1.0,280.0,2.1,'1111122,1111122,1111122' 
COMPS,ioos:station:USF.COMPS:EGK:1,2013-09-03T21:54:00Z,27.6010,-82.7510,10.0,1.0,240.0,2.1,'1111122,1111122,1111122' 
COMPS,ioos:station:USF.COMPS:EGK:1,2013-09-03T22:54:00Z,27.6010,-82.7510,10.0,2.1,270.0,3.1,'1111122,1111122,1111122' 
COMPS,ioos:station:USF.COMPS:EGK:1,2013-09-03T23:54:00Z,27.6010,-82.7510,10.0,1.0,290.0,2.1,'1111122,1111122,1111122' 
COMPS,ioos:station:USF.COMPS:EGK:1,2013-09-04T00:54:00Z,27.6010,-82.7510,10.0,1.0,290.0,1.5,'1111122,1111122,1111122' 
COMPS,ioos:station:USF.COMPS:EGK:1,2013-09-04T01:54:00Z,27.6010,-82.7510,10.0,1.0,280.0,1.5,'1111122,1111122,1111122' 
COMPS,ioos:station:USF.COMPS:EGK:1,2013-09-04T02:54:00Z,27.6010,-82.7510,10.0,0.5,240.0,1.0,'1111122,1111122,1111122' 
COMPS,ioos:station:USF.COMPS:EGK:1,2013-09-04T03:54:00Z,27.6010,-82.7510,10.0,0.0,-9999.0,0.0,'1114422,1111122,1114422' 
COMPS,ioos:station:USF.COMPS:EGK:1,2013-09-04T04:54:00Z,27.6010,-82.7510,10.0,0.0,-9999.0,0.0,'1114422,1111122,1114422' 
COMPS,ioos:station:USF.COMPS:EGK:1,2013-09-04T05:54:00Z,27.6010,-82.7510,10.0,2.1,50.0,2.6,'1111122,1111122,1111122' 
COMPS,ioos:station:USF.COMPS:EGK:1,2013-09-04T06:54:00Z,27.6010,-82.7510,10.0,2.6,120.0,3.1,'1111122,1111122,1111122' 
COMPS,ioos:station:USF.COMPS:EGK:1,2013-09-04T07:54:00Z,27.6010,-82.7510,10.0,2.1,90.0,3.1,'1111122,1111122,1111122' 
COMPS,ioos:station:USF.COMPS:EGK:1,2013-09-04T08:54:00Z,27.6010,-82.7510,10.0,2.6,100.0,3.6,'1111122,1111122,1111122' 
COMPS,ioos:station:USF.COMPS:EGK:1,2013-09-04T09:54:00Z,27.6010,-82.7510,10.0,3.6,70.0,4.6,'1111122,1111122,1111122' 
COMPS,ioos:station:USF.COMPS:EGK:1,2013-09-04T10:54:00Z,27.6010,-82.7510,10.0,3.6,70.0,4.1,'1111122,1111122,1111122' 
COMPS,ioos:station:USF.COMPS:EGK:1,2013-09-04T11:54:00Z,27.6010,-82.7510,10.0,4.1,70.0,5.1,'1111122,1111122,1111122' 
COMPS,ioos:station:USF.COMPS:EGK:1,2013-09-04T12:54:00Z,27.6010,-82.7510,10.0,5.7,80.0,6.2,'1111122,1111122,1111122' 
COMPS,ioos:station:USF.COMPS:EGK:1,2013-09-04T13:54:00Z,27.6010,-82.7510,10.0,5.7,80.0,6.2,'1111122,1111122,1111122' 
COMPS,ioos:station:USF.COMPS:EGK:1,2013-09-04T14:54:00Z,27.6010,-82.7510,10.0,4.6,100.0,5.7,'1111122,1111122,1111122' 
COMPS,ioos:station:USF.COMPS:EGK:1,2013-09-04T15:54:00Z,27.6010,-82.7510,10.0,3.6,90.0,4.1,'1111122,1111122,1111122' 
COMPS,ioos:station:USF.COMPS:EGK:1,2013-09-04T16:54:00Z,27.6010,-82.7510,10.0,2.1,90.0,2.6,'1111122,1111122,1111122' 
COMPS,ioos:station:USF.COMPS:EGK:1,2013-09-04T17:54:00Z,27.6010,-82.7510,10.0,1.5,60.0,2.6,'1111122,1111122,1111122' 
COMPS,ioos:station:USF.COMPS:EGK:1,2013-09-04T18:54:00Z,27.6010,-82.7510,10.0,0.5,50.0,1.0,'1111122,1111122,1111122' 
COMPS,ioos:station:USF.COMPS:EGK:1,2013-09-04T19:54:00Z,27.6010,-82.7510,10.0,2.1,230.0,3.1,'1111122,1111122,1111122' 
COMPS,ioos:station:USF.COMPS:EGK:1,2013-09-04T20:54:00Z,27.6010,-82.7510,10.0,5.7,180.0,7.2,'1111122,1111122,1111122' 
COMPS,ioos:station:USF.COMPS:EGK:1,2013-09-04T21:54:00Z,27.6010,-82.7510,10.0,6.7,110.0,8.2,'1111122,1111122,1111122' 
COMPS,ioos:station:USF.COMPS:EGK:1,2013-09-04T22:54:00Z,27.6010,-82.7510,10.0,3.1,100.0,4.1,'1111122,1111122,1111122' 
COMPS,ioos:station:USF.COMPS:EGK:1,2013-09-04T23:54:00Z,27.6010,-82.7510,10.0,5.7,60.0,6.7,'1111122,1111122,1111122' 
COMPS,ioos:station:USF.COMPS:EGK:1,2013-09-05T00:54:00Z,27.6010,-82.7510,10.0,6.2,60.0,7.2,'1111122,1111122,1111122' 
COMPS,ioos:station:USF.COMPS:EGK:1,2013-09-05T01:54:00Z,27.6010,-82.7510,10.0,6.2,50.0,6.7,'1111122,1111122,1111122' 
COMPS,ioos:station:USF.COMPS:EGK:1,2013-09-05T02:54:00Z,27.6010,-82.7510,10.0,3.1,80.0,4.1,'1111122,1111122,1111122' 
COMPS,ioos:station:USF.COMPS:EGK:1,2013-09-05T03:54:00Z,27.6010,-82.7510,10.0,4.1,100.0,4.6,'1111122,1111122,1111122' 
COMPS,ioos:station:USF.COMPS:EGK:1,2013-09-05T04:54:00Z,27.6010,-82.7510,10.0,4.6,80.0,5.7,'1111122,1111122,1111122' 
COMPS,ioos:station:USF.COMPS:EGK:1,2013-09-05T05:54:00Z,27.6010,-82.7510,10.0,5.7,70.0,6.7,'1111122,1111122,1111122' 
COMPS,ioos:station:USF.COMPS:EGK:1,2013-09-05T06:54:00Z,27.6010,-82.7510,10.0,5.7,90.0,6.2,'1111122,1111122,1111122' 
COMPS,ioos:station:USF.COMPS:EGK:1,2013-09-05T07:54:00Z,27.6010,-82.7510,10.0,4.6,100.0,5.1,'1111122,1111122,1111122' 
COMPS,ioos:station:USF.COMPS:EGK:1,2013-09-05T08:54:00Z,27.6010,-82.7510,10.0,4.6,100.0,5.1,'1111122,1111122,1111122' 
COMPS,ioos:station:USF.COMPS:EGK:1,2013-09-05T09:54:00Z,27.6010,-82.7510,10.0,5.1,90.0,5.7,'1111122,1111122,1111122' 
COMPS,ioos:station:USF.COMPS:EGK:1,2013-09-05T10:54:00Z,27.6010,-82.7510,10.0,5.7,80.0,6.7,'1111122,1111122,1111122' 
COMPS,ioos:station:USF.COMPS:EGK:1,2013-09-05T11:54:00Z,27.6010,-82.7510,10.0,5.7,80.0,6.7,'1111122,1111122,1111122' 
COMPS,ioos:station:USF.COMPS:EGK:1,2013-09-05T12:54:00Z,27.6010,-82.7510,10.0,5.1,80.0,6.2,'1111122,1111122,1111122' 
COMPS,ioos:station:USF.COMPS:EGK:1,2013-09-05T13:54:00Z,27.6010,-82.7510,10.0,4.1,80.0,5.1,'1111122,1111122,1111122' 
COMPS,ioos:station:USF.COMPS:EGK:1,2013-09-05T17:54:00Z,27.6010,-82.7510,10.0,2.1,10.0,2.6,'1111122,1111122,1111122' 
COMPS,ioos:station:USF.COMPS:EGK:1,2013-09-05T18:54:00Z,27.6010,-82.7510,10.0,2.1,20.0,2.6,'1111122,1111122,1111122' 
COMPS,ioos:station:USF.COMPS:EGK:1,2013-09-05T19:54:00Z,27.6010,-82.7510,10.0,1.0,30.0,2.1,'1111122,1111122,1111122' 
COMPS,ioos:station:USF.COMPS:EGK:1,2013-09-05T20:54:00Z,27.6010,-82.7510,10.0,6.2,340.0,7.2,'1111122,1111122,1111122' 
COMPS,ioos:station:USF.COMPS:EGK:1,2013-09-05T22:54:00Z,27.6010,-82.7510,10.0,2.1,280.0,3.1,'1111122,1111122,1111122' 
COMPS,ioos:station:USF.COMPS:EGK:1,2013-09-05T23:54:00Z,27.6010,-82.7510,10.0,4.6,330.0,6.2,'1111122,1111122,1111122' 
COMPS,ioos:station:USF.COMPS:EGK:1,2013-09-06T00:54:00Z,27.6010,-82.7510,10.0,5.1,30.0,5.7,'1111122,1111122,1111122' 
COMPS,ioos:station:USF.COMPS:EGK:1,2013-09-06T01:54:00Z,27.6010,-82.7510,10.0,2.1,30.0,2.6,'1111122,1111122,1111122' 
COMPS,ioos:station:USF.COMPS:EGK:1,2013-09-06T02:54:00Z,27.6010,-82.7510,10.0,3.1,60.0,4.1,'1111122,1111122,1111122' 
COMPS,ioos:station:USF.COMPS:EGK:1,2013-09-06T03:54:00Z,27.6010,-82.7510,10.0,3.1,60.0,3.6,'1111122,1111122,1111122' 
COMPS,ioos:station:USF.COMPS:EGK:1,2013-09-06T04:54:00Z,27.6010,-82.7510,10.0,2.6,80.0,3.1,'1111122,1111122,1111122' 
COMPS,ioos:station:USF.COMPS:EGK:1,2013-09-06T05:54:00Z,27.6010,-82.7510,10.0,3.1,100.0,3.6,'1111122,1111122,1111122' 
COMPS,ioos:station:USF.COMPS:EGK:1,2013-09-06T06:54:00Z,27.6010,-82.7510,10.0,4.1,120.0,4.6,'1111122,1111122,1111122' 
COMPS,ioos:station:USF.COMPS:EGK:1,2013-09-06T07:54:00Z,27.6010,-82.7510,10.0,4.1,110.0,5.1,'1111122,1111122,1111122' 
COMPS,ioos:station:USF.COMPS:EGK:1,2013-09-06T08:54:00Z,27.6010,-82.7510,10.0,4.1,120.0,4.6,'1111122,1111122,1111122' 
COMPS,ioos:station:USF.COMPS:EGK:1,2013-09-06T09:54:00Z,27.6010,-82.7510,10.0,3.6,100.0,4.6,'1111122,1111122,1111122' 
COMPS,ioos:station:USF.COMPS:EGK:1,2013-09-06T10:54:00Z,27.6010,-82.7510,10.0,4.1,100.0,4.6,'1111122,1111122,1111122' 
COMPS,ioos:station:USF.COMPS:EGK:1,2013-09-06T11:54:00Z,27.6010,-82.7510,10.0,4.1,110.0,4.6,'1111122,1111122,1111122' 
COMPS,ioos:station:USF.COMPS:EGK:1,2013-09-06T12:54:00Z,27.6010,-82.7510,10.0,3.6,130.0,4.1,'1111122,1111122,1111122' 
COMPS,ioos:station:USF.COMPS:EGK:1,2013-09-06T13:54:00Z,27.6010,-82.7510,10.0,2.1,140.0,2.6,'1111122,1111122,1111122' 
COMPS,ioos:station:USF.COMPS:EGK:1,2013-09-06T14:54:00Z,27.6010,-82.7510,10.0,1.0,70.0,1.5,'1111122,1111122,1111122' 
COMPS,ioos:station:USF.COMPS:EGK:1,2013-09-06T15:54:00Z,27.6010,-82.7510,10.0,1.0,120.0,1.5,'1111122,1111122,1111122' 
COMPS,ioos:station:USF.COMPS:EGK:1,2013-09-06T16:54:00Z,27.6010,-82.7510,10.0,0.0,-9999.0,0.5,'1114422,1111122,1111122' 
COMPS,ioos:station:USF.COMPS:EGK:1,2013-09-06T17:54:00Z,27.6010,-82.7510,10.0,2.6,260.0,3.1,'1111122,1111122,1111122' 
COMPS,ioos:station:USF.COMPS:EGK:1,2013-09-06T18:54:00Z,27.6010,-82.7510,10.0,2.6,260.0,4.1,'1111122,1111122,1111122' 
COMPS,ioos:station:USF.COMPS:EGK:1,2013-09-06T19:54:00Z,27.6010,-82.7510,10.0,2.6,290.0,4.1,'1111122,1111122,1111122' 
COMPS,ioos:station:USF.COMPS:EGK:1,2013-09-06T20:54:00Z,27.6010,-82.7510,10.0,4.6,320.0,5.7,'1111122,1111122,1111122' 
COMPS,ioos:station:USF.COMPS:EGK:1,2013-09-06T21:54:00Z,27.6010,-82.7510,10.0,5.7,340.0,6.7,'1111122,1111122,1111122' 
COMPS,ioos:station:USF.COMPS:EGK:1,2013-09-06T22:54:00Z,27.6010,-82.7510,10.0,13.4,60.0,16.0,'1111122,1111122,1111122' 
COMPS,ioos:station:USF.COMPS:EGK:1,2013-09-07T00:54:00Z,27.6010,-82.7510,10.0,7.7,80.0,8.8,'1111122,1111122,1111122' 
COMPS,ioos:station:USF.COMPS:EGK:1,2013-09-07T02:54:00Z,27.6010,-82.7510,10.0,3.6,120.0,4.6,'1111122,1111122,1111122' 
COMPS,ioos:station:USF.COMPS:EGK:1,2013-09-07T03:54:00Z,27.6010,-82.7510,10.0,3.6,170.0,4.6,'1111122,1111122,1111122' 
COMPS,ioos:station:USF.COMPS:EGK:1,2013-09-07T04:54:00Z,27.6010,-82.7510,10.0,4.1,130.0,5.7,'1111122,1111122,1111122' 
COMPS,ioos:station:USF.COMPS:EGK:1,2013-09-07T06:54:00Z,27.6010,-82.7510,10.0,4.1,100.0,5.1,'1111122,1111122,1111122' 
COMPS,ioos:station:USF.COMPS:EGK:1,2013-09-07T07:54:00Z,27.6010,-82.7510,10.0,3.6,100.0,5.1,'1111122,1111122,1111122' 
COMPS,ioos:station:USF.COMPS:EGK:1,2013-09-07T08:54:00Z,27.6010,-82.7510,10.0,6.2,30.0,7.2,'1111122,1111122,1111122' 
COMPS,ioos:station:USF.COMPS:EGK:1,2013-09-07T09:54:00Z,27.6010,-82.7510,10.0,4.6,60.0,5.7,'1111122,1111122,1111122' 
COMPS,ioos:station:USF.COMPS:EGK:1,2013-09-07T10:54:00Z,27.6010,-82.7510,10.0,4.6,70.0,5.1,'1111122,1111122,1111122' 
COMPS,ioos:station:USF.COMPS:EGK:1,2013-09-07T11:54:00Z,27.6010,-82.7510,10.0,5.7,50.0,6.7,'1111122,1111122,1111122' 
COMPS,ioos:station:USF.COMPS:EGK:1,2013-09-07T12:54:00Z,27.6010,-82.7510,10.0,6.2,60.0,7.2,'1111122,1111122,1111122' 
COMPS,ioos:station:USF.COMPS:EGK:1,2013-09-07T13:54:00Z,27.6010,-82.7510,10.0,5.1,80.0,6.2,'1111122,1111122,1111122' 
COMPS,ioos:station:USF.COMPS:EGK:1,2013-09-07T14:54:00Z,27.6010,-82.7510,10.0,4.1,90.0,5.1,'1111122,1111122,1111122' 
COMPS,ioos:station:USF.COMPS:EGK:1,2013-09-07T15:54:00Z,27.6010,-82.7510,10.0,2.6,100.0,3.1,'1111122,1111122,1111122' 
COMPS,ioos:station:USF.COMPS:EGK:1,2013-09-07T16:54:00Z,27.6010,-82.7510,10.0,2.1,110.0,2.6,'1111122,1111122,1111122' 
COMPS,ioos:station:USF.COMPS:EGK:1,2013-09-07T17:54:00Z,27.6010,-82.7510,10.0,0.0,-9999.0,1.0,'1114422,1111122,1111122' 
COMPS,ioos:station:USF.COMPS:EGK:1,2013-09-07T18:54:00Z,27.6010,-82.7510,10.0,2.1,280.0,3.1,'1111122,1111122,1111122' 
COMPS,ioos:station:USF.COMPS:EGK:1,2013-09-07T19:54:00Z,27.6010,-82.7510,10.0,2.6,290.0,3.6,'1111122,1111122,1111122' 
COMPS,ioos:station:USF.COMPS:EGK:1,2013-09-07T20:54:00Z,27.6010,-82.7510,10.0,4.1,310.0,5.7,'1111122,1111122,1111122' 
COMPS,ioos:station:USF.COMPS:EGK:1,2013-09-07T21:54:00Z,27.6010,-82.7510,10.0,4.6,330.0,5.1,'1111122,1111122,1111122' 
COMPS,ioos:station:USF.COMPS:EGK:1,2013-09-07T22:54:00Z,27.6010,-82.7510,10.0,4.6,330.0,5.1,'1111122,1111122,1111122' 
COMPS,ioos:station:USF.COMPS:EGK:1,2013-09-07T23:54:00Z,27.6010,-82.7510,10.0,6.2,360.0,8.2,'1111122,1111122,1111122' 
COMPS,ioos:station:USF.COMPS:EGK:1,2013-09-08T00:54:00Z,27.6010,-82.7510,10.0,7.2,20.0,9.8,'1111122,1111122,1111122' 
COMPS,ioos:station:USF.COMPS:EGK:1,2013-09-08T01:54:00Z,27.6010,-82.7510,10.0,3.1,180.0,4.6,'1111122,1111122,1111122' 
COMPS,ioos:station:USF.COMPS:EGK:1,2013-09-08T02:54:00Z,27.6010,-82.7510,10.0,0.0,-9999.0,0.0,'1114422,1111122,1114422' 
COMPS,ioos:station:USF.COMPS:EGK:1,2013-09-08T03:54:00Z,27.6010,-82.7510,10.0,2.6,60.0,3.1,'1111122,1111122,1111122' 
COMPS,ioos:station:USF.COMPS:EGK:1,2013-09-08T04:54:00Z,27.6010,-82.7510,10.0,4.6,70.0,6.2,'1111122,1111122,1111122' 
COMPS,ioos:station:USF.COMPS:EGK:1,2013-09-08T05:54:00Z,27.6010,-82.7510,10.0,4.6,90.0,5.7,'1111122,1111122,1111122' 
COMPS,ioos:station:USF.COMPS:EGK:1,2013-09-08T06:54:00Z,27.6010,-82.7510,10.0,5.1,70.0,6.2,'1111122,1111122,1111122' 
COMPS,ioos:station:USF.COMPS:EGK:1,2013-09-08T07:54:00Z,27.6010,-82.7510,10.0,4.6,70.0,5.7,'1111122,1111122,1111122' 
COMPS,ioos:station:USF.COMPS:EGK:1,2013-09-08T08:54:00Z,27.6010,-82.7510,10.0,4.6,60.0,5.1,'1111122,1111122,1111122' 
COMPS,ioos:station:USF.COMPS:EGK:1,2013-09-08T09:54:00Z,27.6010,-82.7510,10.0,4.1,60.0,5.1,'1111122,1111122,1111122' 
COMPS,ioos:station:USF.COMPS:EGK:1,2013-09-08T10:54:00Z,27.6010,-82.7510,10.0,4.6,50.0,5.7,'1111122,1111122,1111122' 
COMPS,ioos:station:USF.COMPS:EGK:1,2013-09-08T11:54:00Z,27.6010,-82.7510,10.0,4.6,50.0,5.1,'1111122,1111122,1111122' 
COMPS,ioos:station:USF.COMPS:EGK:1,2013-09-08T12:54:00Z,27.6010,-82.7510,10.0,4.6,70.0,6.2,'1111122,1111122,1111122' 
COMPS,ioos:station:USF.COMPS:EGK:1,2013-09-08T13:54:00Z,27.6010,-82.7510,10.0,4.6,60.0,5.7,'1111122,1111122,1111122' 
COMPS,ioos:station:USF.COMPS:EGK:1,2013-09-08T14:54:00Z,27.6010,-82.7510,10.0,4.6,60.0,6.2,'1111122,1111122,1111122' 
COMPS,ioos:station:USF.COMPS:EGK:1,2013-09-08T15:54:00Z,27.6010,-82.7510,10.0,4.6,50.0,5.1,'1111122,1111122,1111122' 
COMPS,ioos:station:USF.COMPS:EGK:1,2013-09-08T16:54:00Z,27.6010,-82.7510,10.0,2.6,30.0,3.6,'1111122,1111122,1111122' 
COMPS,ioos:station:USF.COMPS:EGK:1,2013-09-08T17:54:00Z,27.6010,-82.7510,10.0,2.1,40.0,2.6,'1111122,1111122,1111122' 
COMPS,ioos:station:USF.COMPS:EGK:1,2013-09-08T18:54:00Z,27.6010,-82.7510,10.0,2.1,10.0,2.6,'1111122,1111122,1111122' 
COMPS,ioos:station:USF.COMPS:EGK:1,2013-09-08T19:54:00Z,27.6010,-82.7510,10.0,5.1,330.0,6.2,'1111122,1111122,1111122' 
COMPS,ioos:station:USF.COMPS:EGK:1,2013-09-08T20:54:00Z,27.6010,-82.7510,10.0,5.7,330.0,6.7,'1111122,1111122,1111122' 
COMPS,ioos:station:USF.COMPS:EGK:1,2013-09-08T21:54:00Z,27.6010,-82.7510,10.0,6.7,340.0,7.7,'1111122,1111122,1111122' 
COMPS,ioos:station:USF.COMPS:EGK:1,2013-09-08T22:54:00Z,27.6010,-82.7510,10.0,7.2,340.0,8.8,'1111122,1111122,1111122' 
COMPS,ioos:station:USF.COMPS:EGK:1,2013-09-08T23:54:00Z,27.6010,-82.7510,10.0,5.1,350.0,6.2,'1111122,1111122,1111122' 
COMPS,ioos:station:USF.COMPS:EGK:1,2013-09-09T00:54:00Z,27.6010,-82.7510,10.0,5.7,360.0,7.2,'1111122,1111122,1111122' 
COMPS,ioos:station:USF.COMPS:EGK:1,2013-09-09T01:54:00Z,27.6010,-82.7510,10.0,4.1,50.0,6.2,'1111122,1111122,1111122' 
COMPS,ioos:station:USF.COMPS:EGK:1,2013-09-09T02:54:00Z,27.6010,-82.7510,10.0,8.2,110.0,9.8,'1111122,1111122,1111122' 
COMPS,ioos:station:USF.COMPS:EGK:1,2013-09-09T03:54:00Z,27.6010,-82.7510,10.0,5.7,90.0,6.2,'1111122,1111122,1111122' 
COMPS,ioos:station:USF.COMPS:EGK:1,2013-09-09T04:54:00Z,27.6010,-82.7510,10.0,6.2,100.0,7.2,'1111122,1111122,1111122' 
COMPS,ioos:station:USF.COMPS:EGK:1,2013-09-09T05:54:00Z,27.6010,-82.7510,10.0,5.1,100.0,6.7,'1111122,1111122,1111122' 
COMPS,ioos:station:USF.COMPS:EGK:1,2013-09-09T06:54:00Z,27.6010,-82.7510,10.0,5.7,100.0,6.7,'1111122,1111122,1111122' 
COMPS,ioos:station:USF.COMPS:EGK:1,2013-09-09T07:54:00Z,27.6010,-82.7510,10.0,5.7,90.0,6.7,'1111122,1111122,1111122' 
COMPS,ioos:station:USF.COMPS:EGK:1,2013-09-09T08:54:00Z,27.6010,-82.7510,10.0,6.2,90.0,6.7,'1111122,1111122,1111122' 
COMPS,ioos:station:USF.COMPS:EGK:1,2013-09-09T09:54:00Z,27.6010,-82.7510,10.0,6.2,80.0,6.7,'1111122,1111122,1111122' 
COMPS,ioos:station:USF.COMPS:EGK:1,2013-09-09T10:54:00Z,27.6010,-82.7510,10.0,6.2,80.0,6.7,'1111122,1111122,1111122' 
COMPS,ioos:station:USF.COMPS:EGK:1,2013-09-09T11:54:00Z,27.6010,-82.7510,10.0,5.1,70.0,6.7,'1111122,1111122,1111122' 
COMPS,ioos:station:USF.COMPS:EGK:1,2013-09-09T12:54:00Z,27.6010,-82.7510,10.0,5.7,70.0,6.7,'1111122,1111122,1111122' 
COMPS,ioos:station:USF.COMPS:EGK:1,2013-09-09T13:54:00Z,27.6010,-82.7510,10.0,5.7,60.0,6.2,'1111122,1111122,1111122' 
COMPS,ioos:station:USF.COMPS:EGK:1,2013-09-09T14:54:00Z,27.6010,-82.7510,10.0,4.1,80.0,5.1,'1111122,1111122,1111122' 
COMPS,ioos:station:USF.COMPS:EGK:1,2013-09-09T15:54:00Z,27.6010,-82.7510,10.0,3.1,80.0,4.6,'1111122,1111122,1111122' 
COMPS,ioos:station:USF.COMPS:EGK:1,2013-09-09T16:54:00Z,27.6010,-82.7510,10.0,3.6,40.0,4.6,'1111122,1111122,1111122' 
COMPS,ioos:station:USF.COMPS:EGK:1,2013-09-09T17:54:00Z,27.6010,-82.7510,10.0,4.1,40.0,5.1,'1111122,1111122,1111122' 
COMPS,ioos:station:USF.COMPS:EGK:1,2013-09-09T18:54:00Z,27.6010,-82.7510,10.0,3.6,40.0,4.6,'1111122,1111122,1111122' 
COMPS,ioos:station:USF.COMPS:EGK:1,2013-09-09T19:54:00Z,27.6010,-82.7510,10.0,3.6,30.0,4.6,'1111122,1111122,1111122' 
COMPS,ioos:station:USF.COMPS:EGK:1,2013-09-09T20:54:00Z,27.6010,-82.7510,10.0,4.1,30.0,5.1,'1111122,1111122,1111122' 
COMPS,ioos:station:USF.COMPS:EGK:1,2013-09-09T21:54:00Z,27.6010,-82.7510,10.0,5.7,330.0,6.7,'1111122,1111122,1111122' 
COMPS,ioos:station:USF.COMPS:EGK:1,2013-09-09T23:54:00Z,27.6010,-82.7510,10.0,7.2,90.0,8.2,'1111122,1111122,1111122' 
COMPS,ioos:station:USF.COMPS:EGK:1,2013-09-10T00:54:00Z,27.6010,-82.7510,10.0,6.7,90.0,7.7,'1111122,1111122,1111122' 
COMPS,ioos:station:USF.COMPS:EGK:1,2013-09-10T01:54:00Z,27.6010,-82.7510,10.0,8.2,90.0,9.3,'1111122,1111122,1111122' 
COMPS,ioos:station:USF.COMPS:EGK:1,2013-09-10T02:54:00Z,27.6010,-82.7510,10.0,8.8,90.0,10.3,'1111122,1111122,1111122' 
COMPS,ioos:station:USF.COMPS:EGK:1,2013-09-10T03:54:00Z,27.6010,-82.7510,10.0,8.8,90.0,9.8,'1111122,1111122,1111122' 
COMPS,ioos:station:USF.COMPS:EGK:1,2013-09-10T04:54:00Z,27.6010,-82.7510,10.0,7.2,90.0,9.3,'1111122,1111122,1111122' 
COMPS,ioos:station:USF.COMPS:EGK:1,2013-09-10T05:54:00Z,27.6010,-82.7510,10.0,7.2,90.0,8.8,'1111122,1111122,1111122' 
COMPS,ioos:station:USF.COMPS:EGK:1,2013-09-10T06:54:00Z,27.6010,-82.7510,10.0,6.7,70.0,7.7,'1111122,1111122,1111122' 
COMPS,ioos:station:USF.COMPS:EGK:1,2013-09-10T07:54:00Z,27.6010,-82.7510,10.0,6.2,70.0,7.2,'1111122,1111122,1111122' 
COMPS,ioos:station:USF.COMPS:EGK:1,2013-09-10T08:54:00Z,27.6010,-82.7510,10.0,5.7,70.0,6.7,'1111122,1111122,1111122' 
COMPS,ioos:station:USF.COMPS:EGK:1,2013-09-10T09:54:00Z,27.6010,-82.7510,10.0,5.7,90.0,6.7,'1111122,1111122,1111122' 
COMPS,ioos:station:USF.COMPS:EGK:1,2013-09-10T10:54:00Z,27.6010,-82.7510,10.0,6.2,80.0,7.2,'1111122,1111122,1111122' 
COMPS,ioos:station:USF.COMPS:EGK:1,2013-09-10T11:54:00Z,27.6010,-82.7510,10.0,5.7,80.0,7.2,'1111122,1111122,1111122' 
COMPS,ioos:station:USF.COMPS:EGK:1,2013-09-10T12:54:00Z,27.6010,-82.7510,10.0,7.2,80.0,7.7,'1111122,1111122,1111122' 
COMPS,ioos:station:USF.COMPS:EGK:1,2013-09-10T13:54:00Z,27.6010,-82.7510,10.0,6.7,80.0,7.7,'1111122,1111122,1111122' 
COMPS,ioos:station:USF.COMPS:EGK:1,2013-09-10T14:54:00Z,27.6010,-82.7510,10.0,6.7,80.0,8.2,'1111122,1111122,1111122' 
COMPS,ioos:station:USF.COMPS:EGK:1,2013-09-10T15:54:00Z,27.6010,-82.7510,10.0,6.7,90.0,7.7,'1111122,1111122,1111122' 
COMPS,ioos:station:USF.COMPS:EGK:1,2013-09-10T16:54:00Z,27.6010,-82.7510,10.0,6.2,80.0,7.2,'1111122,1111122,1111122' 
COMPS,ioos:station:USF.COMPS:EGK:1,2013-09-10T18:54:00Z,27.6010,-82.7510,10.0,6.7,60.0,7.7,'1111122,1111122,1111122' 
COMPS,ioos:station:USF.COMPS:EGK:1,2013-09-10T19:54:00Z,27.6010,-82.7510,10.0,6.7,50.0,8.8,'1111122,1111122,1111122' 
COMPS,ioos:station:USF.COMPS:EGK:1,2013-09-10T20:54:00Z,27.6010,-82.7510,10.0,6.2,50.0,8.2,'1111122,1111122,1111122' 
COMPS,ioos:station:USF.COMPS:EGK:1,2013-09-10T22:54:00Z,27.6010,-82.7510,10.0,8.8,70.0,9.8,'1111122,1111122,1111122' 
COMPS,ioos:station:USF.COMPS:EGK:1,2013-09-11T00:54:00Z,27.6010,-82.7510,10.0,7.7,90.0,9.8,'1111122,1111122,1111122' 
COMPS,ioos:station:USF.COMPS:EGK:1,2013-09-11T01:54:00Z,27.6010,-82.7510,10.0,9.3,90.0,11.8,'1111122,1111122,1111122' 
COMPS,ioos:station:USF.COMPS:EGK:1,2013-09-11T02:54:00Z,27.6010,-82.7510,10.0,7.7,90.0,9.3,'1111122,1111122,1111122' 
COMPS,ioos:station:USF.COMPS:EGK:1,2013-09-11T03:54:00Z,27.6010,-82.7510,10.0,7.2,90.0,8.8,'1111122,1111122,1111122' 
COMPS,ioos:station:USF.COMPS:EGK:1,2013-09-11T04:54:00Z,27.6010,-82.7510,10.0,7.2,90.0,7.7,'1111122,1111122,1111122' 
COMPS,ioos:station:USF.COMPS:EGK:1,2013-09-11T05:54:00Z,27.6010,-82.7510,10.0,7.2,90.0,8.2,'1111122,1111122,1111122' 
COMPS,ioos:station:USF.COMPS:EGK:1,2013-09-11T06:54:00Z,27.6010,-82.7510,10.0,6.2,80.0,6.7,'1111122,1111122,1111122' 
COMPS,ioos:station:USF.COMPS:EGK:1,2013-09-11T07:54:00Z,27.6010,-82.7510,10.0,6.2,70.0,7.2,'1111122,1111122,1111122' 
COMPS,ioos:station:USF.COMPS:EGK:1,2013-09-11T08:54:00Z,27.6010,-82.7510,10.0,6.2,60.0,7.2,'1111122,1111122,1111122' 
COMPS,ioos:station:USF.COMPS:EGK:1,2013-09-11T09:54:00Z,27.6010,-82.7510,10.0,6.7,70.0,8.8,'1111122,1111122,1111122' 
COMPS,ioos:station:USF.COMPS:EGK:1,2013-09-11T10:54:00Z,27.6010,-82.7510,10.0,6.7,70.0,8.2,'1111122,1111122,1111122' 
COMPS,ioos:station:USF.COMPS:EGK:1,2013-09-11T11:54:00Z,27.6010,-82.7510,10.0,7.2,70.0,8.8,'1111122,1111122,1111122' 
COMPS,ioos:station:USF.COMPS:EGK:1,2013-09-11T12:54:00Z,27.6010,-82.7510,10.0,8.2,70.0,9.3,'1111122,1111122,1111122' 
COMPS,ioos:station:USF.COMPS:EGK:1,2013-09-11T13:54:00Z,27.6010,-82.7510,10.0,7.2,70.0,8.2,'1111122,1111122,1111122' 
COMPS,ioos:station:USF.COMPS:EGK:1,2013-09-11T14:54:00Z,27.6010,-82.7510,10.0,7.7,80.0,9.3,'1111122,1111122,1111122' 
COMPS,ioos:station:USF.COMPS:EGK:1,2013-09-11T15:54:00Z,27.6010,-82.7510,10.0,7.2,70.0,7.7,'1111122,1111122,1111122' 
COMPS,ioos:station:USF.COMPS:EGK:1,2013-09-11T16:54:00Z,27.6010,-82.7510,10.0,6.2,80.0,7.2,'1111122,1111122,1111122' 
COMPS,ioos:station:USF.COMPS:EGK:1,2013-09-11T17:54:00Z,27.6010,-82.7510,10.0,6.2,70.0,6.7,'1111122,1111122,1111122' 
COMPS,ioos:station:USF.COMPS:EGK:1,2013-09-11T18:54:00Z,27.6010,-82.7510,10.0,7.2,120.0,8.8,'1111122,1111122,1111122' 
COMPS,ioos:station:USF.COMPS:EGK:1,2013-09-11T19:54:00Z,27.6010,-82.7510,10.0,5.1,110.0,7.2,'1111122,1111122,1111122' 
COMPS,ioos:station:USF.COMPS:EGK:1,2013-09-11T20:54:00Z,27.6010,-82.7510,10.0,6.7,90.0,8.2,'1111122,1111122,1111122' 
COMPS,ioos:station:USF.COMPS:EGK:1,2013-09-11T21:54:00Z,27.6010,-82.7510,10.0,6.2,90.0,7.2,'1111122,1111122,1111122' 
COMPS,ioos:station:USF.COMPS:EGK:1,2013-09-11T22:54:00Z,27.6010,-82.7510,10.0,5.7,90.0,6.7,'1111122,1111122,1111122' 
COMPS,ioos:station:USF.COMPS:EGK:1,2013-09-11T23:54:00Z,27.6010,-82.7510,10.0,5.7,110.0,6.7,'1111122,1111122,1111122' 
COMPS,ioos:station:USF.COMPS:EGK:1,2013-09-12T00:54:00Z,27.6010,-82.7510,10.0,5.1,90.0,6.2,'1111122,1111122,1111122' 
COMPS,ioos:station:USF.COMPS:EGK:1,2013-09-12T01:54:00Z,27.6010,-82.7510,10.0,7.2,130.0,8.2,'1111122,1111122,1111122' 
COMPS,ioos:station:USF.COMPS:EGK:1,2013-09-12T02:54:00Z,27.6010,-82.7510,10.0,5.7,130.0,7.2,'1111122,1111122,1111122' 
COMPS,ioos:station:USF.COMPS:EGK:1,2013-09-12T03:54:00Z,27.6010,-82.7510,10.0,4.6,110.0,5.7,'1111122,1111122,1111122' 
COMPS,ioos:station:USF.COMPS:EGK:1,2013-09-12T04:54:00Z,27.6010,-82.7510,10.0,6.7,110.0,7.7,'1111122,1111122,1111122' 
COMPS,ioos:station:USF.COMPS:EGK:1,2013-09-12T05:54:00Z,27.6010,-82.7510,10.0,5.7,120.0,6.7,'1111122,1111122,1111122' 
COMPS,ioos:station:USF.COMPS:EGK:1,2013-09-12T06:54:00Z,27.6010,-82.7510,10.0,3.1,110.0,3.6,'1111122,1111122,1111122' 
COMPS,ioos:station:USF.COMPS:EGK:1,2013-09-12T07:54:00Z,27.6010,-82.7510,10.0,3.6,110.0,4.6,'1111122,1111122,1111122' 
COMPS,ioos:station:USF.COMPS:EGK:1,2013-09-12T08:54:00Z,27.6010,-82.7510,10.0,3.6,110.0,4.6,'1111122,1111122,1111122' 
COMPS,ioos:station:USF.COMPS:EGK:1,2013-09-12T09:54:00Z,27.6010,-82.7510,10.0,2.6,110.0,3.1,'1111122,1111122,1111122' 
COMPS,ioos:station:USF.COMPS:EGK:1,2013-09-12T10:54:00Z,27.6010,-82.7510,10.0,4.1,100.0,4.6,'1111122,1111122,1111122' 
COMPS,ioos:station:USF.COMPS:EGK:1,2013-09-12T11:54:00Z,27.6010,-82.7510,10.0,3.6,110.0,4.6,'1111122,1111122,1111122' 
COMPS,ioos:station:USF.COMPS:EGK:1,2013-09-12T12:54:00Z,27.6010,-82.7510,10.0,4.1,90.0,4.6,'1111122,1111122,1111122' 
COMPS,ioos:station:USF.COMPS:EGK:1,2013-09-12T13:54:00Z,27.6010,-82.7510,10.0,3.6,90.0,4.6,'1111122,1111122,1111122' 
COMPS,ioos:station:USF.COMPS:EGK:1,2013-09-12T14:54:00Z,27.6010,-82.7510,10.0,2.6,110.0,3.6,'1111122,1111122,1111122' 
COMPS,ioos:station:USF.COMPS:EGK:1,2013-09-12T15:54:00Z,27.6010,-82.7510,10.0,1.5,80.0,2.1,'1111122,1111122,1111122' 